Cross City, FL

7:02 AM EDT on October 19, 2019 (GMT -0400)
Cross City

Weather History for KCTY - July, 2019

Change the Weather History Date:

Wednesday, July 31, 2019

  Actual Average Record
Temperature  
Mean Temperature 84 °F 82 °F  
Max Temperature 94 °F 91 °F 100 °F (1999)
Min Temperature 73 °F 72 °F 67 °F (2014)
Degree Days  
Heating Degree Days 0    
Month to date heating degree days 0  
Since 1 June heating degree days 0  
Since 1 July heating degree days 0  
Cooling Degree Days 19    
Month to date cooling degree days 532  
Year to date cooling degree days 1708  
Since 1 June cooling degree days 1024  
Growing Degree Days 32 (Base 50)    
Moisture  
Dew Point 73 °F    
Average Humidity 76    
Maximum Humidity 98    
Minimum Humidity 47    
Precipitation  
Precipitation 0.00 in 0.20 in 1.81 in (2018)
Month to date precipitation 7.19 5.66  
Year to date precipitation 35.84 27.92  
Sea Level Pressure  
Sea Level Pressure 30.04 in    
Wind  
Wind Speed 3 mph (SE)    
Max Wind Speed 8 mph    
Max Gust Speed -    
Visibility 10 miles    
Events Thunderstorm    
T = Trace of Precipitation, MM = Missing Value Source: NWS Daily Summary

Daily Weather History Graph

Daily Weather History Graph

Search for Another Location

Airport or City:

Astronomy

Jul. 31, 2019 Rise Set
Actual Time 6:51 AM EDT 8:25 PM EDT
Civil Twilight 6:25 AM EDT 8:51 PM EDT
Nautical Twilight 5:54 AM EDT 9:22 PM EDT
Astronomical Twilight 5:21 AM EDT 9:55 PM EDT
Moon 6:08 AM EDT (7/31) 8:21 PM EDT (7/31)
Length of Visible Light 14h 26m
Length of Day
13h 34m
Waning Crescent, 0% of the Moon is Illuminated
Jul 31
Waning Crescent
Jul 31
New
Aug 7
First Quarter
Aug 15
Full
Aug 23
Last Quarter

Hourly Weather History & Observations

Time (EDT) Temp. Heat Index Dew Point Humidity Pressure Visibility Wind Dir Wind Speed Gust Speed Precip Events Conditions
12:15 AM 79.2 °F - 72.5 °F 80% 30.05 in 10.0 mi SSE 5.8 mph - N/A   Scattered Clouds
12:35 AM 78.4 °F - 72.7 °F 82% 30.05 in 10.0 mi Calm Calm - N/A   Clear
12:55 AM 77.4 °F - 72.7 °F 85% 30.05 in 10.0 mi ESE 3.5 mph - N/A   Clear
1:15 AM 77.0 °F - 73.4 °F 89% 30.05 in 10.0 mi Calm Calm - N/A   Clear
1:35 AM 76.6 °F - 72.9 °F 88% 30.04 in 10.0 mi Calm Calm - N/A   Clear
1:55 AM 76.5 °F - 73.0 °F 89% 30.04 in 10.0 mi Calm Calm - N/A   Clear
2:15 AM 75.6 °F - 73.0 °F 92% 30.04 in 10.0 mi Calm Calm - N/A   Clear
2:35 AM 74.8 °F - 72.3 °F 92% 30.03 in 10.0 mi Calm Calm - N/A   Clear
2:55 AM 75.2 °F - 73.2 °F 94% 30.03 in 10.0 mi Calm Calm - N/A   Clear
3:15 AM 74.7 °F - 73.0 °F 95% 30.03 in 10.0 mi South 3.5 mph - N/A   Clear
3:35 AM 75.2 °F - 73.0 °F 93% 30.03 in 10.0 mi Calm Calm - N/A   Clear
3:55 AM 75.4 °F - 72.9 °F 92% 30.03 in 10.0 mi Calm Calm - N/A   Clear
4:15 AM 75.4 °F - 72.9 °F 92% 30.02 in 10.0 mi ESE 3.5 mph - N/A   Clear
4:35 AM 75.7 °F - 73.2 °F 92% 30.02 in 10.0 mi Calm Calm - N/A   Clear
4:55 AM 73.4 °F - 71.8 °F 95% 30.02 in 10.0 mi Calm Calm - N/A   Clear
5:15 AM 74.1 °F - 72.9 °F 96% 30.03 in 10.0 mi Calm Calm - N/A   Clear
5:35 AM 73.4 °F - 72.3 °F 96% 30.02 in 10.0 mi Calm Calm - N/A   Clear
5:55 AM 73.2 °F - 72.1 °F 96% 30.03 in 10.0 mi Calm Calm - N/A   Clear
6:15 AM 72.7 °F - 71.6 °F 96% 30.03 in 10.0 mi Calm Calm - N/A   Clear
6:35 AM 73.0 °F - 72.3 °F 98% 30.03 in 5.0 mi Calm Calm - N/A   Clear
6:55 AM 72.7 °F - 71.6 °F 96% 30.04 in 10.0 mi Calm Calm - N/A   Clear
7:15 AM 73.2 °F - 72.3 °F 97% 30.04 in 10.0 mi Calm Calm - N/A Thunderstorm Clear
7:35 AM 74.3 °F - 73.4 °F 97% 30.05 in 10.0 mi Calm Calm - N/A   Clear
7:55 AM 76.3 °F - 74.3 °F 94% 30.05 in 10.0 mi Calm Calm - N/A   Clear
8:15 AM 77.0 °F - 74.7 °F 92% 30.05 in 10.0 mi Calm Calm - N/A   Clear
8:35 AM 78.6 °F - 75.2 °F 89% 30.06 in 10.0 mi East 3.5 mph - N/A   Clear
8:55 AM 80.6 °F 86.8 °F 76.3 °F 87% 30.06 in 7.0 mi SE 4.6 mph - N/A   Haze
9:15 AM 81.9 °F 89.7 °F 76.8 °F 85% 30.07 in 7.0 mi ENE 3.5 mph - N/A   Haze
9:35 AM 83.7 °F 93.8 °F 77.5 °F 82% 30.07 in 10.0 mi Calm Calm - N/A   Clear
10:15 AM 84.6 °F 93.5 °F 75.9 °F 75% 30.07 in 10.0 mi Calm Calm - N/A   Clear
10:35 AM 86.2 °F 95.5 °F 75.4 °F 70% 30.08 in 10.0 mi East 3.5 mph - N/A   Clear
10:55 AM 88.0 °F 98.0 °F 75.2 °F 66% 30.08 in 10.0 mi East 4.6 mph - N/A   Clear
11:15 AM 87.8 °F 99.1 °F 76.3 °F 69% 30.08 in 10.0 mi SSW 4.6 mph - N/A   Scattered Clouds
11:35 AM 89.6 °F 99.8 °F 75.2 °F 62% 30.08 in 10.0 mi NE 5.8 mph - N/A   Scattered Clouds
11:55 AM 88.9 °F 98.6 °F 75.0 °F 63% 30.08 in 10.0 mi ENE 8.1 mph - N/A   Mostly Cloudy
12:15 PM 89.8 °F 100.9 °F 75.6 °F 63% 30.08 in 10.0 mi ESE 6.9 mph - N/A   Scattered Clouds
12:35 PM 91.0 °F 102.2 °F 75.6 °F 60% 30.08 in 10.0 mi ESE 4.6 mph - N/A   Scattered Clouds
12:55 PM 89.6 °F 98.2 °F 73.4 °F 59% 30.07 in 10.0 mi Calm Calm - N/A   Mostly Cloudy
1:15 PM 90.9 °F 100.6 °F 74.5 °F 58% 30.07 in 10.0 mi East 5.8 mph - N/A   Mostly Cloudy
1:35 PM 92.3 °F 102.2 °F 73.9 °F 55% 30.06 in 10.0 mi ENE 3.5 mph - N/A   Scattered Clouds
1:55 PM 93.4 °F 104.8 °F 74.8 °F 55% 30.05 in 10.0 mi NE 6.9 mph - N/A   Mostly Cloudy
2:15 PM 90.9 °F 100.0 °F 73.6 °F 57% 30.04 in 10.0 mi SSE 8.1 mph - N/A   Mostly Cloudy
2:35 PM 91.2 °F 99.7 °F 72.9 °F 55% 30.04 in 10.0 mi Calm Calm - N/A Thunderstorm Mostly Cloudy
2:55 PM 90.9 °F 100.0 °F 73.6 °F 57% 30.04 in 10.0 mi SSE 4.6 mph - N/A   Mostly Cloudy
3:15 PM 87.6 °F 97.6 °F 75.4 °F 67% 30.03 in 7.0 mi South 8.1 mph - N/A Thunderstorm Thunderstorm
3:35 PM 85.3 °F 93.0 °F 73.9 °F 69% 30.05 in 7.0 mi WSW 6.9 mph - N/A Thunderstorm Unknown
3:55 PM 84.0 °F 90.8 °F 73.8 °F 71% 30.03 in 10.0 mi SW 3.5 mph - N/A   Scattered Clouds
4:15 PM 84.4 °F 91.3 °F 73.6 °F 70% 30.02 in 10.0 mi WSW 4.6 mph - N/A Thunderstorm Thunderstorm
4:35 PM 88.0 °F 97.0 °F 74.3 °F 64% 30.01 in 10.0 mi North 5.8 mph - N/A   Clear
4:55 PM 88.5 °F 96.3 °F 72.9 °F 60% 30.00 in 10.0 mi NW 4.6 mph - N/A   Clear
5:15 PM 88.9 °F 97.1 °F 73.2 °F 60% 30.00 in 10.0 mi North 4.6 mph - N/A   Clear
5:35 PM 90.0 °F 99.6 °F 74.3 °F 60% 30.00 in 10.0 mi NE 4.6 mph - N/A   Clear
5:55 PM 90.3 °F 98.7 °F 73.2 °F 57% 30.00 in 10.0 mi ENE 4.6 mph - N/A   Clear
6:15 PM 91.2 °F 100.8 °F 73.9 °F 57% 30.01 in 10.0 mi East 10.4 mph - N/A   Scattered Clouds
6:35 PM 87.6 °F 95.7 °F 73.8 °F 63% 30.02 in 10.0 mi East 9.2 mph - N/A   Scattered Clouds
6:55 PM 86.9 °F 94.1 °F 73.0 °F 63% 30.02 in 10.0 mi ESE 6.9 mph - N/A   Scattered Clouds
7:15 PM 85.8 °F 90.8 °F 70.3 °F 60% 30.02 in - SSE 6.9 mph - N/A   Scattered Clouds
7:35 PM 84.6 °F 89.4 °F 70.5 °F 63% 30.03 in 10.0 mi SSE 3.5 mph - N/A   Scattered Clouds
7:55 PM 82.9 °F 86.7 °F 69.8 °F 64% 30.04 in 10.0 mi SSE 3.5 mph - N/A Thunderstorm Scattered Clouds
8:15 PM 82.2 °F 85.8 °F 69.3 °F 65% 30.05 in 10.0 mi ESE 4.6 mph - N/A   Scattered Clouds
8:35 PM 81.1 °F 84.0 °F 68.5 °F 65% 30.05 in 10.0 mi SE 4.6 mph - N/A   Mostly Cloudy
8:55 PM 80.4 °F 83.5 °F 69.4 °F 69% 30.05 in 10.0 mi SE 8.1 mph - N/A   Scattered Clouds
9:15 PM 79.7 °F - 70.9 °F 74% 30.06 in 10.0 mi SSE 6.9 mph - N/A   Clear
9:35 PM 79.3 °F - 71.6 °F 77% 30.06 in 10.0 mi South 5.8 mph - N/A   Clear
9:55 PM 78.8 °F - 71.6 °F 78% 30.06 in 10.0 mi SSE 5.8 mph - N/A   Clear
10:15 PM 78.4 °F - 72.0 °F 80% 30.06 in 10.0 mi South 3.5 mph - N/A   Clear
10:35 PM 78.1 °F - 71.4 °F 80% 30.06 in 10.0 mi South 4.6 mph - N/A   Clear
10:55 PM 77.7 °F - 71.1 °F 80% 30.06 in 10.0 mi SSE 3.5 mph - N/A   Clear
11:15 PM 77.7 °F - 72.0 °F 82% 30.06 in 10.0 mi SSW 3.5 mph - N/A   Clear
11:35 PM 77.0 °F - 71.6 °F 83% 30.05 in 10.0 mi ESE 3.5 mph - N/A   Clear
11:55 PM 77.0 °F - 72.0 °F 84% 30.05 in 10.0 mi Calm Calm - N/A   Clear